Regional Weather Roundup
Issued by NWS

Home | Current Version | Previous Version | Graphics & Text | Print | Product List | Glossary On
Versions: 1 2 3 4 5 6 7 8 9 10 11 12 13 14 15 16 17 18 19 20 21 22 23 24 25 26 27 28 29 30 31 32 33 34 35 36 37 38 39 40 41 42 43 44 45 46 47 48 49 50
000
ASUS43 KLSX 230659
RWRMO

WEATHER SUMMARY FOR MISSOURI
NATIONAL WEATHER SERVICE SPRINGFIELD MO
200 AM CDT WED JUL 23 2014

NOTE: "FAIR" INDICATES FEW OR NO CLOUDS BELOW 12,000 FEET WITH NO
       SIGNIFICANT WEATHER AND/OR OBSTRUCTIONS TO VISIBILITY.
       CURRENT SKY AND/OR WEATHER CONDITIONS ARE NOT AVAILABLE FOR
       CHILLICOTHE AND FARMINGTON.

MOZ001>031-035>038-043-044-053-054-230800-
...NORTHERN AND WESTERN MISSOURI...

CITY           SKY/WX    TMP DP  RH WIND       PRES   REMARKS
KANSAS CTY INT MOCLDY    79  71  76 N9        30.11S
KANSAS C DTWN  CLOUDY    83  73  72 NE10      30.09R
LEE`S SUMMIT   MOCLDY    81  73  76 N14       30.10R
ST JOSEPH      CLEAR     74  69  85 N9        30.12S
CHILLICOTHE      N/A     79  69  71 N9        30.10S
KIRKSVILLE     CLEAR     75  70  84 N9        30.10S

$$
MOZ066>068-077>081-088>096-101>105-230800-
...SOUTHWEST MISSOURI...

CITY           SKY/WX    TMP DP  RH WIND       PRES   REMARKS
SPRINGFIELD    PTCLDY    78  74  87 S3        30.08F
JOPLIN         PTCLDY    81  75  82 SW7       30.08S

$$
MOZ032>034-039>042-045>050-055>058-069>072-230800-
...CENTRAL MISSOURI...

CITY           SKY/WX    TMP DP  RH WIND       PRES   REMARKS
COLUMBIA       PTCLDY    81  79  94 NW5       30.04S HX  90
JEFFERSON CITY PTCLDY    80  77  90 NW3       30.02R
ROLLA          MOCLDY    78  73  84 SW10      30.03F
SEDALIA        CLEAR     81  77  88 W5        30.06S FOG
OSAGE BEACH    PTCLDY    79  75  89 SW3       30.04S

$$
MOZ051-052-059>065-230800-
...EAST CENTRAL MISSOURI...

CITY           SKY/WX    TMP DP  RH WIND       PRES   REMARKS
ST LOUIS INTL  CLOUDY    82  72  71 CALM      30.02R
SPIRIT OF STL  MOCLDY    78  74  87 CALM      30.00R
ST CHARLES     MOCLDY    76  73  91 S6        29.99F

$$
MOZ072>076-082>087-097>100-106>115-230800-
...SOUTH CENTRAL AND SOUTHEAST MISSOURI...

CITY           SKY/WX    TMP DP  RH WIND       PRES   REMARKS
CAPE GIRARDEAU PTCLDY    70  67  90 CALM      30.04F
FARMINGTON     CLOUDY    73  68  83 S3        30.07F
POPLAR BLUFF   CLEAR     73  68  84 CALM      30.04F
WEST PLAINS    CLEAR     75  68  78 S6        30.10S

$$



USA.gov is the U.S. government's official web portal to all federal, state and local government web resources and services.